When you browse on this site, cookies collect data to enhance your experience and personalize the content and advertising you see.
Visit our Privacy Policy to learn more. By continuing to use the site, you agree to this use of cookies and data.

Tiempo cada hora La Rinconada

Hoy, 23 Septiembre, Miércoles

Tiempo Temperatura Precipitaciones Viento Presión Humedad
00:00 +23°C° 0 mm 2 mps 761 mmHg 65%
01:00 +21°C° 0 mm 2 mps 760 mmHg 67%
02:00 +21°C° 0 mm 2 mps 760 mmHg 69%
03:00 +22°C° 0 mm 1 mps 760 mmHg 70%
04:00 +21°C° 0 mm 1 mps 760 mmHg 72%
05:00 +21°C° 0 mm 1 mps 760 mmHg 74%
06:00 +20°C° 0 mm 1 mps 760 mmHg 76%
07:00 +21°C° 0 mm 2 mps 760 mmHg 70%
08:00 +23°C° 0 mm 2 mps 761 mmHg 65%
09:00 +25°C° 0 mm 3 mps 761 mmHg 59%
10:00 +26°C° 0 mm 4 mps 761 mmHg 55%
11:00 +28°C° 0 mm 4 mps 761 mmHg 51%
12:00 +29°C° 0 mm 5 mps 761 mmHg 47%
13:00 +29°C° 0 mm 5 mps 760 mmHg 46%
14:00 +30°C° 0 mm 4 mps 760 mmHg 44%
15:00 +30°C° 0 mm 4 mps 760 mmHg 43%
16:00 +29°C° 0 mm 4 mps 760 mmHg 48%
17:00 +28°C° 0 mm 4 mps 760 mmHg 52%
18:00 +27°C° 0 mm 4 mps 760 mmHg 57%
19:00 +26°C° 0 mm 4 mps 760 mmHg 64%
20:00 +25°C° 0 mm 3 mps 761 mmHg 71%
21:00 +24°C° 0 mm 2 mps 762 mmHg 78%
22:00 +23°C° 0 mm 2 mps 762 mmHg 79%
23:00 +23°C° 0 mm 1 mps 762 mmHg 81%

Mañana, 24 Septiembre, Jueves

Tiempo Temperatura Precipitaciones Viento Presión Humedad
00:00 +23°C° 0 mm 1 mps 761 mmHg 83%
01:00 +22°C° 0 mm 1 mps 761 mmHg 84%
02:00 +22°C° 0 mm 1 mps 761 mmHg 85%
03:00 +20°C° 0 mm 0 mps 761 mmHg 86%
04:00 +20°C° 0 mm 0 mps 761 mmHg 86%
05:00 +20°C° 0 mm 0 mps 761 mmHg 86%
06:00 +20°C° 0 mm 0 mps 761 mmHg 86%
07:00 +21°C° 0 mm 0 mps 762 mmHg 79%
08:00 +22°C° 0 mm 0 mps 762 mmHg 73%
09:00 +24°C° 0 mm 0 mps 762 mmHg 66%
10:00 +27°C° 0 mm 1 mps 762 mmHg 59%
11:00 +29°C° 0 mm 1 mps 762 mmHg 52%
12:00 +30°C° 0 mm 2 mps 762 mmHg 44%
13:00 +31°C° 0 mm 3 mps 762 mmHg 42%
14:00 +33°C° 0 mm 4 mps 761 mmHg 39%
15:00 +34°C° 0 mm 5 mps 761 mmHg 36%
16:00 +32°C° 0 mm 4 mps 761 mmHg 40%
17:00 +30°C° 0 mm 4 mps 761 mmHg 44%
18:00 +29°C° 0 mm 4 mps 761 mmHg 49%
19:00 +28°C° 0 mm 4 mps 762 mmHg 54%
20:00 +27°C° 0 mm 3 mps 763 mmHg 59%
21:00 +26°C° 0 mm 3 mps 764 mmHg 64%
22:00 +25°C° 0 mm 3 mps 764 mmHg 65%
23:00 +25°C° 0 mm 2 mps 764 mmHg 65%

Pasado mañana, 25 Septiembre, Viernes

Tiempo Temperatura Precipitaciones Viento Presión Humedad
00:00 +24°C° 0 mm 2 mps 764 mmHg 66%
01:00 +24°C° 0 mm 2 mps 764 mmHg 67%
02:00 +23°C° 0 mm 2 mps 764 mmHg 67%
03:00 +21°C° 0 mm 2 mps 765 mmHg 68%
04:00 +21°C° 0 mm 2 mps 765 mmHg 66%
05:00 +20°C° 0 mm 2 mps 765 mmHg 64%
06:00 +19°C° 0 mm 2 mps 765 mmHg 63%
07:00 +20°C° 0 mm 2 mps 766 mmHg 56%
08:00 +21°C° 0 mm 2 mps 766 mmHg 49%
09:00 +22°C° 0 mm 3 mps 766 mmHg 42%
10:00 +25°C° 0 mm 3 mps 766 mmHg 36%
11:00 +27°C° 0 mm 3 mps 766 mmHg 30%
12:00 +28°C° 0 mm 3 mps 766 mmHg 25%
13:00 +29°C° 0 mm 3 mps 766 mmHg 23%
14:00 +30°C° 0 mm 3 mps 765 mmHg 21%
15:00 +32°C° 0 mm 4 mps 765 mmHg 19%
16:00 +30°C° 0 mm 4 mps 765 mmHg 20%
17:00 +28°C° 0 mm 4 mps 765 mmHg 22%
18:00 +27°C° 0 mm 4 mps 765 mmHg 23%
19:00 +25°C° 0 mm 3 mps 765 mmHg 26%
20:00 +24°C° 0 mm 3 mps 766 mmHg 28%
21:00 +21°C° 0 mm 3 mps 766 mmHg 30%
22:00 +21°C° 0 mm 3 mps 766 mmHg 32%
23:00 +20°C° 0 mm 2 mps 766 mmHg 34%

26 Septiembre, Sábado

Tiempo Temperatura Precipitaciones Viento Presión Humedad
00:00 +19°C° 0 mm 2 mps 767 mmHg 36%
01:00 +19°C° 0 mm 2 mps 766 mmHg 38%
02:00 +18°C° 0 mm 2 mps 766 mmHg 40%
03:00 +17°C° 0 mm 2 mps 766 mmHg 41%
04:00 +17°C° 0 mm 2 mps 766 mmHg 43%
05:00 +17°C° 0 mm 2 mps 766 mmHg 45%
06:00 +16°C° 0 mm 2 mps 766 mmHg 46%
07:00 +18°C° 0 mm 2 mps 766 mmHg 41%
08:00 +20°C° 0 mm 3 mps 767 mmHg 36%
09:00 +22°C° 0 mm 3 mps 767 mmHg 31%
10:00 +24°C° 0 mm 3 mps 766 mmHg 28%
11:00 +26°C° 0 mm 3 mps 766 mmHg 25%
12:00 +27°C° 0 mm 2 mps 766 mmHg 22%
13:00 +28°C° 0 mm 2 mps 765 mmHg 21%
14:00 +29°C° 0 mm 2 mps 765 mmHg 19%
15:00 +30°C° 0 mm 2 mps 764 mmHg 18%
16:00 +28°C° 0 mm 1 mps 764 mmHg 20%
17:00 +27°C° 0 mm 1 mps 764 mmHg 22%
18:00 +26°C° 0 mm 1 mps 764 mmHg 24%
19:00 +25°C° 0 mm 1 mps 764 mmHg 26%
20:00 +24°C° 0 mm 1 mps 765 mmHg 28%
21:00 +23°C° 0 mm 2 mps 765 mmHg 31%
22:00 +21°C° 0 mm 2 mps 765 mmHg 31%
23:00 +21°C° 0 mm 2 mps 765 mmHg 32%

27 Septiembre, Domingo

Tiempo Temperatura Precipitaciones Viento Presión Humedad
00:00 +20°C° 0 mm 2 mps 764 mmHg 33%
01:00 +20°C° 0 mm 2 mps 764 mmHg 34%
02:00 +19°C° 0 mm 2 mps 764 mmHg 35%
03:00 +19°C° 0 mm 2 mps 763 mmHg 36%
04:00 +19°C° 0 mm 2 mps 764 mmHg 36%
05:00 +18°C° 0 mm 2 mps 764 mmHg 37%
06:00 +18°C° 0 mm 2 mps 764 mmHg 38%
07:00 +20°C° 0 mm 2 mps 764 mmHg 34%
08:00 +22°C° 0 mm 3 mps 764 mmHg 31%
09:00 +25°C° 0 mm 3 mps 764 mmHg 28%
10:00 +27°C° 0 mm 3 mps 763 mmHg 25%
11:00 +28°C° 0 mm 3 mps 763 mmHg 23%
12:00 +30°C° 0 mm 2 mps 763 mmHg 20%
13:00 +31°C° 0 mm 2 mps 762 mmHg 20%
14:00 +31°C° 0 mm 2 mps 762 mmHg 19%
15:00 +32°C° 0 mm 2 mps 761 mmHg 19%
16:00 +31°C° 0 mm 1 mps 761 mmHg 21%
17:00 +30°C° 0 mm 1 mps 761 mmHg 23%
18:00 +28°C° 0 mm 1 mps 761 mmHg 25%
19:00 +27°C° 0 mm 2 mps 761 mmHg 27%
20:00 +26°C° 0 mm 2 mps 761 mmHg 29%
21:00 +25°C° 0 mm 2 mps 761 mmHg 31%
22:00 +24°C° 0 mm 2 mps 761 mmHg 32%
23:00 +24°C° 0 mm 2 mps 761 mmHg 33%

28 Septiembre, Lunes

Tiempo Temperatura Precipitaciones Viento Presión Humedad
00:00 +23°C° 0 mm 2 mps 761 mmHg 34%
01:00 +23°C° 0 mm 2 mps 761 mmHg 35%
02:00 +21°C° 0 mm 2 mps 761 mmHg 37%
03:00 +21°C° 0 mm 2 mps 761 mmHg 38%
04:00 +21°C° 0 mm 2 mps 761 mmHg 39%
05:00 +20°C° 0 mm 2 mps 761 mmHg 41%
06:00 +20°C° 0 mm 3 mps 761 mmHg 42%
07:00 +22°C° 0 mm 3 mps 761 mmHg 39%
08:00 +25°C° 0 mm 4 mps 761 mmHg 36%
09:00 +26°C° 0 mm 5 mps 761 mmHg 33%
10:00 +28°C° 0 mm 4 mps 761 mmHg 30%
11:00 +30°C° 0 mm 4 mps 760 mmHg 26%
12:00 +31°C° 0 mm 3 mps 760 mmHg 23%
13:00 +33°C° 0 mm 3 mps 760 mmHg 22%
14:00 +32°C° 0 mm 2 mps 759 mmHg 21%
15:00 +32°C° 0 mm 2 mps 759 mmHg 20%
16:00 +31°C° 0 mm 1 mps 759 mmHg 22%
17:00 +30°C° 0 mm 1 mps 759 mmHg 24%
18:00 +29°C° 0 mm 1 mps 759 mmHg 26%
19:00 +28°C° 0 mm 1 mps 759 mmHg 29%
20:00 +27°C° 0 mm 2 mps 759 mmHg 31%
21:00 +26°C° 0 mm 2 mps 759 mmHg 33%
22:00 +25°C° 0 mm 1 mps 759 mmHg 34%
23:00 +25°C° 0 mm 1 mps 759 mmHg 35%
Mostrar más